Location: Unspecified
(40.9447°N, 78.9903°W)
Time: 10:34:54
(UTC-04:00)

Resurs 1-4 Rocket - Pass Details

Date: 31 July 2021
Orbit: 799 x 815 km, 98.6° (Epoch: 23 September)

Event Time Altitude Azimuth Distance (km) Brightness Sun altitude
Rises 03:47:20 0° 2° (N) 3,339 6.2 -22.0°
Reaches altitude 10° 03:49:56 10° 352° (N) 2,401 5.1 -21.7°
Maximum altitude 03:54:27 30° 294° (WNW) 1,431 3.2 -21.2°
Enters shadow 03:55:33 27° 272° (W) 1,503 3.2 -21.0°
